Date String (YYYY-MM-DD hh:mm:ss) UTC,Instrument flags,Ambient pressure (hPa),Sample flow (lpm),Bypass flow (lpm),Sample temperature (°C),Ambient temperature (°C),ASC tube jacket temperature (°C),LED temperature (°C),Box temperature (°C),Sample RH (%),Span deviation,Mass concentration (μg/m³),Mass concentration (μg/m³),Mass concentration (μg/m³)
DateTimeUTC,F1_M11,P_M11,Q1_M11,Q2_M11,T1_M11,T2_M11,T3_M11,T4_M11,T5_M11,U1_M11,ZSPAN_M11,X0_M11,X2_M11,X1_M11
2022-07-31 08:00:00,,0829.0,5.01,0.00,29.8,28.5,00.0,38.5,31.7,21.0,0000.0,0007.51,0005.05,0004.77
2022-07-31 08:01:00,,0829.0,5.00,0.00,29.8,27.8,00.0,38.5,31.5,21.1,0000.0,0008.04,0005.06,0004.78
2022-07-31 08:02:00,,0829.1,5.00,0.00,29.7,27.5,00.0,38.4,31.5,21.2,0000.0,0008.21,0005.05,0004.79
2022-07-31 08:03:00,,0829.1,5.00,0.00,29.6,27.5,00.0,38.4,31.4,21.4,0000.0,0008.33,0005.09,0004.81
2022-07-31 08:04:00,,0829.1,5.00,0.00,29.6,27.6,00.0,38.4,31.4,21.1,0000.0,0008.35,0005.09,0004.81
2022-07-31 08:05:00,,0829.1,5.01,0.00,29.6,27.7,00.0,38.4,31.4,21.1,0000.0,0008.36,0005.10,0004.81
2022-07-31 08:06:00,,0829.1,5.00,0.00,29.6,27.8,00.0,38.4,31.4,21.4,0000.0,0008.29,0005.10,0004.81
2022-07-31 08:07:00,,0829.1,4.99,0.00,29.6,28.0,00.0,38.4,31.4,21.5,0000.0,0008.18,0005.07,0004.80
2022-07-31 08:08:00,,0829.1,5.00,0.00,29.6,28.1,00.0,38.4,31.5,21.5,0000.0,0008.17,0005.07,0004.80
2022-07-31 08:09:00,,0829.1,5.00,0.00,29.6,28.2,00.0,38.4,31.5,21.4,0000.0,0008.12,0005.04,0004.79
2022-07-31 08:10:00,,0829.0,4.99,0.00,29.6,28.3,00.0,38.4,31.5,21.2,0000.0,0008.03,0004.98,0004.76
2022-07-31 08:11:00,,0829.0,5.01,0.00,29.6,28.4,00.0,38.4,31.6,21.2,0000.0,0008.01,0004.95,0004.75
2022-07-31 08:12:00,,0829.1,4.99,0.00,29.7,28.5,00.0,38.4,31.6,21.1,0000.0,0007.60,0004.96,0004.75
2022-07-31 08:13:00,,0829.1,5.01,0.00,29.7,28.6,00.0,38.4,31.6,21.4,0000.0,0007.29,0004.96,0004.74
2022-07-31 08:14:00,,0829.1,5.01,0.00,29.7,28.6,00.0,38.5,31.7,21.3,0000.0,0007.20,0004.95,0004.72
2022-07-31 08:15:00,,0829.1,5.00,0.00,29.7,28.7,00.0,38.5,31.7,21.3,0000.0,0007.10,0004.94,0004.73
2022-07-31 08:16:00,,0829.1,4.99,0.00,29.8,28.7,00.0,38.5,31.7,21.3,0000.0,0007.14,0004.94,0004.72
2022-07-31 08:17:00,,0829.1,5.01,0.00,29.8,28.8,00.0,38.5,31.7,21.4,0000.0,0007.27,0004.96,0004.72
2022-07-31 08:18:00,,0829.1,5.00,0.00,29.8,28.8,00.0,38.5,31.8,21.3,0000.0,0007.20,0004.94,0004.71
2022-07-31 08:19:00,,0829.1,5.00,0.00,29.8,28.3,00.0,38.5,31.7,21.2,0000.0,0007.21,0004.92,0004.71
2022-07-31 08:20:00,,0829.1,5.01,0.00,29.8,27.7,00.0,38.5,31.5,21.0,0000.0,0007.18,0004.92,0004.71
2022-07-31 08:21:00,,0829.1,4.99,0.00,29.7,27.5,00.0,38.5,31.5,20.9,0000.0,0007.22,0004.93,0004.72
2022-07-31 08:22:00,,0829.1,5.00,0.00,29.7,27.6,00.0,38.5,31.4,21.0,0000.0,0007.24,0004.94,0004.72
2022-07-31 08:23:00,,0829.1,5.01,0.00,29.6,27.7,00.0,38.4,31.4,21.1,0000.0,0007.13,0004.91,0004.71
2022-07-31 08:24:00,,0829.0,4.99,0.00,29.6,27.8,00.0,38.4,31.4,21.0,0000.0,0007.05,0004.91,0004.72
2022-07-31 08:25:00,,0829.0,5.00,0.00,29.6,27.9,00.0,38.4,31.4,21.1,0000.0,0007.02,0004.92,0004.72
2022-07-31 08:26:00,,0829.0,5.01,0.00,29.6,28.1,00.0,38.4,31.5,21.4,0000.0,0007.15,0004.91,0004.71
2022-07-31 08:27:00,,0829.1,4.99,0.00,29.6,28.2,00.0,38.4,31.5,20.9,0000.0,0007.04,0004.90,0004.71
2022-07-31 08:28:00,,0829.1,5.00,0.00,29.6,28.3,00.0,38.4,31.5,20.9,0000.0,0006.93,0004.88,0004.71
2022-07-31 08:29:00,,0829.1,5.00,0.00,29.6,28.4,00.0,38.4,31.6,21.2,0000.0,0006.97,0004.89,0004.71
2022-07-31 08:30:00,,0829.0,5.00,0.00,29.7,28.5,00.0,38.5,31.6,21.4,0000.0,0006.97,0004.89,0004.70
2022-07-31 08:31:00,,0829.1,5.01,0.00,29.7,28.6,00.0,38.5,31.7,21.6,0000.0,0006.97,0004.88,0004.67
2022-07-31 08:32:00,,0829.1,5.00,0.00,29.7,28.7,00.0,38.5,31.7,21.6,0000.0,0007.07,0004.89,0004.65
2022-07-31 08:33:00,,0829.1,4.99,0.00,29.8,28.7,00.0,38.5,31.7,21.5,0000.0,0007.12,0004.88,0004.64
2022-07-31 08:34:00,,0829.2,5.00,0.00,29.8,28.8,00.0,38.5,31.8,21.6,0000.0,0007.26,0004.90,0004.63
2022-07-31 08:35:00,,0829.3,4.99,0.00,29.8,28.8,00.0,38.6,31.8,21.8,0000.0,0007.45,0004.96,0004.64
2022-07-31 08:36:00,,0829.3,5.00,0.00,29.8,28.7,00.0,38.6,31.8,21.8,0000.0,0007.58,0005.00,0004.64
2022-07-31 08:37:00,,0829.2,4.99,0.00,29.8,28.0,00.0,38.5,31.5,21.7,0000.0,0007.60,0005.02,0004.64
2022-07-31 08:38:00,,0829.3,5.01,0.00,29.8,27.6,00.0,38.5,31.5,22.0,0000.0,0007.83,0005.02,0004.65
2022-07-31 08:39:00,,0829.2,5.01,0.00,29.7,27.5,00.0,38.5,31.4,22.3,0000.0,0008.04,0005.02,0004.66
2022-07-31 08:40:00,,0829.3,5.00,0.00,29.6,27.6,00.0,38.5,31.4,22.5,0000.0,0008.04,0005.01,0004.65
2022-07-31 08:41:00,,0829.3,5.00,0.00,29.6,27.7,00.0,38.5,31.4,22.7,0000.0,0008.13,0005.05,0004.66
2022-07-31 08:42:00,,0829.3,5.00,0.00,29.6,27.9,00.0,38.4,31.4,22.8,0000.0,0008.74,0005.08,0004.67
2022-07-31 08:43:00,,0829.3,5.01,0.00,29.6,28.0,00.0,38.4,31.4,22.9,0000.0,0009.91,0005.09,0004.69
2022-07-31 08:44:00,,0829.3,4.99,0.00,29.6,28.1,00.0,38.4,31.5,23.0,0000.0,0010.07,0005.11,0004.69
2022-07-31 08:45:00,,0829.3,5.01,0.00,29.6,28.2,00.0,38.4,31.5,23.0,0000.0,0010.29,0005.13,0004.69
2022-07-31 08:46:00,,0829.3,5.00,0.00,29.6,28.3,00.0,38.5,31.5,23.1,0000.0,0010.40,0005.09,0004.67
2022-07-31 08:47:00,,0829.3,5.00,0.00,29.7,28.4,00.0,38.5,31.6,23.1,0000.0,0010.69,0005.04,0004.65
2022-07-31 08:48:00,,0829.2,5.01,0.00,29.7,28.5,00.0,38.5,31.6,23.2,0000.0,0011.63,0005.03,0004.64
2022-07-31 08:49:00,,0829.3,4.99,0.00,29.7,28.6,00.0,38.5,31.7,23.2,0000.0,0011.58,0005.04,0004.65
2022-07-31 08:50:00,,0829.3,5.01,0.00,29.7,28.7,00.0,38.5,31.7,23.2,0000.0,0011.40,0005.05,0004.64
2022-07-31 08:51:00,,0829.3,4.99,0.00,29.8,28.7,00.0,38.5,31.7,23.1,0000.0,0012.37,0005.08,0004.64
2022-07-31 08:52:00,,0829.3,5.01,0.00,29.8,28.8,00.0,38.5,31.8,23.1,0000.0,0013.41,0005.09,0004.65
2022-07-31 08:53:00,,0829.2,4.99,0.00,29.8,28.8,00.0,38.6,31.8,23.1,0000.0,0013.54,0005.08,0004.65
2022-07-31 08:54:00,,0829.3,5.02,0.00,29.8,28.5,00.0,38.6,31.7,23.1,0000.0,0012.82,0005.08,0004.65
2022-07-31 08:55:00,,0829.3,5.00,0.00,29.8,27.8,00.0,38.5,31.5,23.1,0000.0,0013.38,0005.07,0004.65
2022-07-31 08:56:00,,0829.2,4.99,0.00,29.7,27.5,00.0,38.5,31.5,23.0,0000.0,0013.50,0005.08,0004.66
2022-07-31 08:57:00,,0829.2,5.01,0.00,29.7,27.5,00.0,38.5,31.3,23.2,0000.0,0013.36,0005.08,0004.68
2022-07-31 08:58:00,,0829.2,5.00,0.00,29.6,27.6,00.0,38.5,31.4,23.3,0000.0,0013.00,0005.07,0004.68
2022-07-31 08:59:00,,0829.3,5.00,0.00,29.6,27.7,00.0,38.5,31.4,23.3,0000.0,0012.41,0005.06,0004.68
